CAPE
1657 2515 2053 2275 2404 2425 2426 2324 2108 2079 2204 2305 2410 2524 2283 2457 2464 2420 2498 2622 2699 2216 1811 1866 2380 2168 1360 1266 1569 1988 1969 1870 1768 1745 1656 1357 1106 961 785 1109 1087 1126 1186
1945 2346 1999 2225 2410 2505 2500 2346 2170 2195 2374 2418 2513 2466 2355 2456 2442 2506 2439 2473 2295 2479 2011 1823 2256 1556 1188 1386 1623 1710 1636 1511 1595 1583 1529 1128 919 808 659 951 918 850 1140
2172 2257 2424 2086 2367 2514 2587 2464 2369 2429 2575 2488 2553 2449 2440 2479 2485 2439 2233 2065 2015 2196 1623 1737 1665 1302 1123 1180 1427 1509 1419 1369 1379 1419 1401 739 862 727 626 872 983 827 804
2181 2151 2622 1956 2215 2308 2509 2440 2438 2653 2654 2522 2572 2490 2505 2528 2478 2337 2129 1869 1808 1719 1482 1538 1429 1093 1030 1006 1016 1026 992 1019 937 982 550 447 391 607 642 695 625 504 498
1923 2102 2695 1920 2071 2168 2300 2417 2502 2544 2449 2454 2490 2570 2585 2497 2420 2317 1999 1878 1827 1709 1154 1349 1180 935 939 731 632 577 457 378 410 527 219 230 227 367 274 190 255 296 359
2011 1936 1708 1685 1949 2092 2304 2409 2471 2361 2328 2308 2373 2547 2575 2495 2440 2074 1756 1639 1529 1310 1113 1321 929 777 656 454 327 232 154 99 220 26 117 109 128 127 163 115 111 59 46
2039 1963 1960 1549 1849 2123 2345 2393 2285 2138 2054 2092 2331 2348 2365 2354 2181 1731 1496 1262 975 868 780 1236 722 522 399 239 98 31 4 0 0 0 6 28 24 61 30 19 24 24 20
2002 1834 1971 1625 1723 2076 2142 2130 1998 1910 1885 2013 2148 2153 2189 2042 1690 1443 1187 796 591 508 359 700 633 389 183 58 0 0 0 0 0 0 4 13 15 14 17 18 21 17 17
2258 1912 2076 1896 1980 1654 1869 1716 1653 1799 1882 1917 1918 1903 1841 1524 1209 1095 801 521 413 379 388 462 471 165 43 0 0 0 0 0 0 0 0 5 12 10 14 7 18 10 14
1902 2060 2142 2375 1749 2235 2610 1312 1379 1520 1596 1638 1620 1535 1273 1011 850 727 379 270 223 269 514 472 194 42 4 0 0 0 0 0 0 0 0 5 14 12 14 10 8 18 21
1819 1839 2281 2223 2440 2013 2041 2084 1359 1365 1365 1382 1446 1111 886 1410 1075 541 117 79 111 111 335 192 55 5 0 0 0 0 0 0 0 0 0 22 20 10 14 10 13 19 10
1686 1643 1932 2140 2264 2488 2137 2117 2284 2405 2376 2270 2070 1724 1548 1122 813 324 43 6 19 84 136 57 12 0 0 0 0 0 0 0 0 0 0 25 16 16 19 19 7 12 7
2282 1958 1856 1965 2247 2345 2084 2188 2051 1845 1939 2119 2084 1857 1292 1179 836 343 43 0 0 73 54 8 4 0 0 0 0 0 0 0 0 0 3 24 16 20 25 9 14 11 14
2493 2161 2022 1800 2189 2384 2076 1870 2261 2192 2245 2164 1938 1829 1766 1254 838 302 0 0 0 0 0 0 0 0 0 0 0 0 0 0 0 0 10 18 26 19 21 15 15 12 16
2295 2433 2198 1835 2171 2359 2135 1845 1771 1714 1748 1633 1398 1489 1566 1119 686 258 0 0 0 0 0 0 0 2 7 0 0 0 0 0 0 0 5 18 17 26 13 19 15 13 11
1628 2348 2279 2026 2045 2097 1923 2168 1980 1728 1605 1135 826 1035 1468 1263 908 314 0 0 0 0 0 0 0 2 1 0 1 0 0 0 0 2 3 12 16 30 28 19 20 15 12
764 1612 2222 2122 2099 2387 2769 2966 2796 2117 1861 1077 582 966 1483 1388 776 435 8 0 0 0 0 0 0 0 0 0 3 0 0 0 0 2 2 4 14 16 30 34 24 9 13
384 986 1672 1825 2052 2300 2571 2683 2457 2596 1823 1355 582 1207 1098 1130 841 480 28 0 0 0 0 0 0 0 0 0 1 1 0 2 1 3 3 2 5 13 18 28 27 15 9
83 615 996 2129 1993 2296 2429 2537 2483 2360 2080 1228 631 839 806 730 673 682 145 0 0 0 0 0 0 0 0 0 0 1 3 3 5 3 6 5 6 5 18 28 26 21 26
0 118 716 1452 2171 2061 2587 2402 2222 2182 1559 1007 563 621 542 466 598 723 459 6 0 0 0 0 0 0 0 0 0 4 8 8 8 9 11 5 6 9 19 23 18 12 36
0 0 331 1278 2376 2209 1863 1689 1412 1339 1323 945 554 527 484 414 267 61 0 0 0 0 0 0 0 0 0 2 4 4 0 3 12 14 16 11 11 7 11 15 6 14 26
0 0 23 873 1406 2088 1744 1324 1233 1158 1079 1026 593 329 424 266 20 33 0 0 0 0 0 0 0 0 0 11 8 2 4 0 0 5 8 11 19 13 17 14 10 13 18
0 0 2 424 1130 1827 1675 1193 918 829 844 621 460 154 139 112 3 3 2 0 0 0 0 0 0 0 0 15 0 0 5 1 2 0 6 10 13 12 18 15 10 8 13
0 0 0 229 887 1597 1807 992 817 647 621 539 559 314 75 11 4 4 1 0 0 0 0 0 0 0 0 2 4 0 0 0 1 4 3 11 10 12 19 16 12 8 10
0 0 0 147 687 1366 1896 1252 852 716 820 630 416 296 25 2 2 3 2 1 0 0 0 0 0 1 0 0 0 0 0 0 0 0 4 7 10 16 16 17 11 7 9
0 0 0 0 644 1262 1848 1674 1228 766 718 674 495 332 155 2 2 2 2 1 0 0 0 0 0 0 0 0 0 0 0 0 0 0 0 9 8 12 11 12 12 8 10
CIN
-203 -174 -302 -269 -277 -282 -254 -235 -237 -217 -158 -122 -104 -92 -104 -60 -52 -52 -29 -5 -0 -11 -32 -31 -2 -3 -54 -53 -7 -0 -0 -0 -1 -0 -0 -0 -0 -0 -2 -1 -2 -0 -0
-153 -189 -272 -249 -236 -236 -218 -219 -214 -188 -140 -110 -97 -97 -104 -69 -66 -60 -51 -24 -18 -0 -28 -37 -5 -56 -90 -37 -2 -0 -1 -2 -1 -0 -0 -0 -0 -0 -0 -4 -2 -1 -0
-133 -179 -169 -247 -223 -203 -180 -189 -178 -142 -116 -95 -94 -98 -98 -78 -70 -69 -73 -67 -56 -22 -64 -47 -52 -92 -89 -65 -18 -2 -4 -4 -4 -5 -7 -14 -2 -6 -6 -1 -1 -3 -1
-133 -152 -90 -220 -203 -191 -147 -166 -152 -108 -105 -87 -89 -88 -91 -85 -76 -86 -90 -90 -85 -78 -92 -71 -74 -110 -96 -80 -66 -40 -41 -31 -42 -43 -45 -73 -86 -45 -30 -13 -24 -41 -33
-173 -142 -61 -196 -189 -181 -153 -128 -115 -105 -109 -91 -90 -74 -90 -92 -89 -90 -105 -88 -95 -93 -142 -86 -107 -132 -110 -126 -139 -141 -166 -169 -159 -94 -110 -117 -120 -89 -113 -157 -133 -119 -97
-165 -141 -193 -204 -179 -167 -139 -110 -99 -107 -111 -102 -93 -71 -84 -87 -81 -108 -121 -118 -124 -139 -153 -94 -143 -157 -165 -192 -219 -262 -288 -285 -224 -228 -179 -192 -190 -211 -190 -225 -217 -264 -282
-156 -134 -119 -177 -150 -131 -99 -89 -108 -118 -120 -112 -95 -84 -87 -80 -91 -134 -156 -171 -189 -192 -206 -103 -181 -208 -202 -254 -305 -375 -166 -0 -0 -0 -115 -202 -17 -188 -83 -2 -3 -1 -0
-140 -150 -103 -152 -127 -85 -100 -97 -131 -140 -136 -111 -106 -98 -83 -89 -127 -153 -181 -248 -286 -263 -290 -175 -183 -219 -258 -313 -27 -0 -0 -0 -0 -0 -0 -0 -2 -0 -0 -2 -2 -1 -0
-88 -139 -87 -85 -54 -102 -78 -129 -153 -129 -129 -114 -119 -111 -93 -124 -171 -184 -221 -296 -327 -318 -259 -205 -189 -245 -294 -0 -0 -0 -0 -0 -0 -0 -0 -0 -0 -0 -0 -0 -0 -0 -0
-136 -122 -102 -31 -80 -12 -1 -147 -161 -141 -144 -136 -138 -131 -132 -154 -172 -202 -286 -343 -368 -337 -248 -194 -249 -313 -199 -0 -0 -0 -0 -0 -0 -0 -0 -0 -0 -0 -0 -0 -0 -0 -0
-131 -147 -99 -75 -22 -40 -13 -16 -104 -108 -127 -137 -131 -165 -187 -37 -67 -165 -299 -403 -388 -374 -263 -280 -309 -363 -0 -0 -0 -0 -0 -0 -0 -0 -0 -2 -0 -0 -0 -0 -0 -0 -0
-128 -165 -146 -99 -61 -17 -16 -0 -0 -1 -5 -7 -9 -51 -38 -19 -45 -121 -298 -173 -411 -339 -303 -318 -403 -0 -0 -0 -0 -0 -0 -0 -0 -0 -0 -2 -0 -0 -0 -0 -0 -0 -0
-51 -106 -140 -129 -65 -44 -45 -0 -0 -0 -0 -0 -0 -14 -22 -16 -22 -61 -240 -0 -0 -317 -283 -282 -323 -0 -0 -0 -0 -0 -0 -0 -0 -0 -4 -2 -0 -0 -0 -0 -0 -0 -0
-22 -65 -98 -140 -78 -53 -56 -40 -0 -0 -0 -0 -0 -6 -0 -15 -31 -78 -0 -0 -0 -0 -0 -0 -0 -0 -21 -0 -0 -0 -0 -0 -0 -0 -1 -4 -0 -0 -0 -0 -0 -0 -0
-13 -23 -67 -125 -91 -63 -65 -65 -49 -28 -9 -12 -26 -8 -2 -14 -45 -92 -0 -0 -0 -0 -0 -0 -0 -128 -283 -0 -0 -0 -0 -0 -0 -0 -0 -6 -2 -0 -0 -0 -0 -0 -0
-34 -20 -46 -91 -104 -80 -102 -56 -56 -51 -36 -67 -114 -40 -2 -6 -28 -106 -0 -0 -0 -0 -0 -0 -0 -0 -0 -0 -0 -0 -0 -0 -0 -0 -0 -0 -5 -2 -0 -0 -0 -0 -0
-61 -50 -63 -98 -93 -59 -31 -10 -8 -47 -35 -84 -170 -47 -1 -1 -49 -88 -153 -0 -0 -0 -0 -0 -0 -0 -0 -0 -0 -0 -0 -0 -0 -0 -0 -0 -0 -14 -2 -0 -0 -0 -0
-89 -61 -63 -95 -88 -65 -35 -22 -25 -14 -73 -106 -177 -33 -21 -5 -39 -69 -134 -0 -0 -0 -0 -0 -0 -0 -0 -0 -0 -0 -0 -0 -0 -0 -0 -0 -0 -0 -6 -2 -0 -0 -0
-146 -89 -70 -51 -97 -70 -32 -22 -23 -22 -39 -127 -199 -110 -79 -65 -62 -24 -119 -0 -0 -0 -0 -0 -0 -0 -0 -0 -0 -0 -0 -0 -0 -0 -0 -0 -0 -0 -0 -7 -6 -1 -0
-0 -162 -97 -48 -69 -76 -23 -19 -22 -14 -79 -134 -224 -199 -156 -139 -89 -21 -43 -64 -0 -0 -0 -0 -0 -0 -0 -0 -0 -0 -0 -0 -0 -0 -0 -0 -0 -0 -0 -0 -0 -2 -2
-0 -1 -157 -44 -34 -38 -59 -71 -102 -128 -137 -184 -248 -234 -190 -163 -189 -226 -0 -0 -0 -0 -0 -0 -0 -0 -0 -0 -0 -1 -0 -5 -1 -0 -0 -0 -0 -0 -0 -0 -0 -0 -0
-0 -0 -339 -86 -29 -28 -84 -145 -127 -151 -158 -177 -212 -248 -222 -225 -343 -284 -0 -0 -0 -0 -0 -0 -0 -0 -0 -0 -0 -0 -0 -0 -0 -0 -0 -0 -0 -0 -0 -0 -0 -0 -0
-0 -0 -219 -203 -32 -3 -52 -95 -128 -117 -83 -96 -155 -354 -358 -339 -67 -0 -0 -0 -0 -0 -0 -0 -0 -0 -0 -0 -0 -0 -0 -0 -0 -0 -0 -1 -1 -0 -0 -0 -0 -0 -0
-0 -0 -0 -262 -79 -5 -13 -79 -149 -181 -156 -208 -201 -284 -346 -233 -0 -0 -0 -0 -0 -0 -0 -0 -0 -0 -0 -0 -0 -0 -0 -0 -0 -0 -0 -0 -0 -0 -0 -0 -0 -0 -0
-0 -0 -0 -353 -120 -35 -20 -61 -116 -148 -149 -180 -186 -196 -437 -0 -0 -0 -0 -0 -0 -0 -0 -0 -0 -0 -0 -0 -0 -0 -0 -0 -0 -0 -0 -0 -0 -0 -0 -0 -0 -0 -0
-0 -0 -0 -0 -114 -41 -14 -34 -67 -117 -143 -148 -184 -204 -294 -0 -0 -0 -0 -1 -1 -0 -0 -0 -0 -0 -0 -0 -0 -0 -0 -0 -0 -0 -0 -0 -0 -0 -0 -0 -0 -0 -0
Wind_Speed
3 14 13 13 16 18 19 21 22 23 23 23 22 22 22 21 20 20 18 16 16 18 18 19 18 18 18 17 16 16 15 14 15 17 18 19 18 17 15 12 12 18 18
8 15 13 13 16 18 19 21 22 23 24 23 23 22 23 21 21 20 19 17 17 16 18 18 17 18 18 17 16 15 15 15 16 17 18 18 17 17 17 15 15 16 17
11 14 19 13 16 18 20 22 23 25 25 24 23 23 23 22 21 20 19 18 18 17 18 18 18 18 18 17 15 15 15 14 12 11 12 13 15 17 18 16 16 18 18
11 13 18 12 17 19 18 21 23 25 25 24 23 23 23 22 21 20 19 18 19 18 18 18 18 18 17 15 15 14 15 12 10 12 10 12 12 16 18 18 18 18 19
10 12 16 12 16 19 20 21 22 24 25 24 24 24 23 22 21 20 19 17 19 18 19 18 19 18 16 14 14 14 13 9 6 6 10 10 11 14 15 16 17 19 19
12 11 16 10 15 19 20 21 22 24 24 24 24 23 23 22 21 20 19 18 18 18 19 19 19 18 15 14 13 14 12 8 10 10 11 10 13 15 16 18 17 18 18
12 9 13 7 13 18 20 21 22 23 25 25 23 22 22 21 20 19 19 19 18 17 18 18 19 17 15 15 14 13 10 3 9 10 10 12 12 16 17 17 17 18 17
11 9 12 11 10 14 19 19 20 22 24 24 22 21 21 20 19 19 18 18 18 17 17 17 18 17 16 15 14 11 8 7 9 11 12 11 14 14 15 16 16 15 16
11 11 10 16 14 8 11 15 17 20 23 22 21 20 19 18 18 18 17 18 19 19 18 17 18 17 16 16 15 11 8 1 10 9 11 10 13 14 15 15 15 15 16
11 13 13 14 16 16 14 11 15 18 20 21 21 19 16 16 15 16 16 18 21 20 21 19 19 17 16 16 15 11 9 5 11 9 9 10 13 15 16 15 14 15 16
9 13 12 12 13 16 17 14 12 14 17 19 19 18 16 13 15 16 13 17 20 20 21 22 20 19 17 16 15 13 14 7 8 7 9 12 15 15 15 16 16 16 15
13 15 13 12 12 12 13 16 17 15 14 15 16 17 14 14 14 15 13 16 17 19 21 21 22 21 18 12 10 12 5 8 6 8 9 13 16 17 16 16 16 16 15
16 14 16 15 13 13 10 10 9 10 11 12 15 17 15 12 11 10 9 10 12 17 13 15 16 14 14 11 11 7 9 8 6 8 12 13 15 18 18 16 16 16 16
18 19 18 18 15 16 10 9 11 11 11 10 14 19 13 10 12 11 10 12 11 11 15 14 11 13 14 13 12 10 10 8 7 8 11 11 13 17 17 16 16 17 17
18 19 20 19 16 17 14 10 11 11 10 11 12 14 12 14 13 12 12 11 11 12 14 13 13 12 12 13 11 12 10 9 10 8 8 10 10 15 16 16 16 16 16
18 19 19 21 20 20 15 19 12 11 12 11 11 13 17 13 13 13 12 12 11 12 14 13 13 12 11 12 12 12 11 10 10 11 10 9 8 11 15 16 16 15 15
19 19 21 22 22 23 24 19 15 13 14 12 12 16 18 16 16 16 13 13 11 12 15 13 13 13 12 11 13 12 11 11 11 12 11 11 10 8 13 14 16 15 15
22 22 20 18 22 23 21 17 15 14 13 13 13 15 17 17 18 16 14 13 12 12 13 13 14 13 12 12 12 11 10 11 12 12 11 10 10 11 10 13 12 13 15
23 23 22 22 23 24 22 17 18 16 13 12 12 14 19 17 17 15 13 13 14 12 13 13 13 14 13 13 12 11 10 10 11 10 12 11 11 11 10 12 13 9 13
21 22 23 20 23 22 17 15 12 12 11 11 13 14 19 16 19 16 14 15 15 13 13 14 16 14 13 12 12 11 9 9 9 9 11 10 10 11 12 14 11 9 12
19 21 23 22 22 16 14 14 13 14 13 12 13 19 20 18 19 17 12 13 15 16 16 16 15 17 14 14 13 8 5 1 7 9 10 10 13 12 12 12 9 10 8
18 20 22 23 22 20 14 14 13 13 12 13 11 14 18 20 20 19 16 15 17 15 16 17 18 15 13 15 13 11 5 0 4 6 8 9 12 11 11 12 11 13 12
11 16 19 21 22 21 19 13 11 10 10 10 12 12 16 20 20 20 19 16 16 14 15 18 18 21 15 15 18 8 8 9 9 4 9 8 9 9 11 12 12 11 12
4 6 12 18 20 20 19 15 19 12 12 11 11 12 14 20 21 22 21 19 18 14 16 18 16 17 16 18 14 13 10 11 11 6 7 9 9 11 12 11 12 12 11
5 4 3 11 17 19 18 17 15 16 14 12 11 15 15 15 19 21 21 20 19 15 17 20 20 21 16 16 17 16 13 10 12 9 11 11 9 12 12 12 12 12 14
7 5 5 6 12 14 13 19 19 19 17 14 14 12 12 12 14 20 21 19 19 18 19 19 21 23 19 17 16 17 15 16 14 10 10 18 15 15 12 12 12 11 12
Wind_Direction
211 137 148 156 144 138 147 149 150 147 146 149 149 146 144 143 141 136 134 130 130 138 136 132 123 118 116 115 107 106 101 101 102 104 101 98 92 87 74 69 92 79 71
156 152 145 150 143 140 147 150 150 147 148 151 150 147 145 146 144 141 137 133 136 135 135 133 124 120 118 115 109 104 104 102 105 104 104 97 94 92 84 70 62 76 78
160 164 161 150 144 146 150 151 151 150 148 153 152 151 148 147 145 142 141 139 140 138 139 135 127 124 125 117 109 106 100 99 110 126 156 96 99 95 90 84 82 74 71
154 163 166 152 147 153 152 152 153 152 149 154 153 152 151 149 148 145 143 146 144 143 140 140 131 129 126 117 111 107 103 106 124 168 121 111 99 93 85 84 83 81 77
146 173 158 153 148 155 159 155 154 152 150 152 153 155 153 151 149 147 142 143 141 142 143 143 135 133 126 116 112 108 108 114 160 197 105 105 99 88 88 89 89 78 71
150 182 129 154 151 157 158 159 156 153 149 151 155 157 154 152 151 146 142 143 144 145 144 143 136 132 123 117 113 110 113 140 216 95 87 80 90 88 84 82 84 85 82
146 171 164 165 157 157 160 159 157 155 154 155 154 154 153 152 151 146 144 145 145 145 142 141 137 131 124 119 115 110 112 163 105 105 109 90 89 89 90 84 82 84 84
154 168 182 162 162 158 160 158 154 155 155 154 151 153 155 154 150 147 146 145 143 141 138 142 136 132 127 120 113 109 113 126 118 103 103 93 88 91 89 84 87 90 87
167 166 170 183 175 156 154 156 155 154 152 151 150 153 156 151 150 148 149 145 140 139 137 143 138 133 128 122 118 117 127 102 114 110 111 107 114 107 104 97 90 92 87
182 175 170 181 187 182 171 157 155 155 152 150 148 149 145 144 148 149 148 145 144 143 141 143 138 134 129 123 120 121 123 181 112 118 100 103 122 115 111 105 104 90 94
196 183 179 176 184 189 185 168 158 157 152 148 147 140 142 165 166 156 162 148 146 146 144 142 137 132 126 124 130 147 181 117 130 115 109 125 123 118 115 112 104 104 101
197 191 182 176 179 182 185 180 182 174 173 172 169 165 167 167 180 183 140 148 147 149 144 141 137 134 153 148 149 177 150 128 126 119 115 130 126 119 114 115 115 104 102
198 194 189 180 182 179 172 181 185 187 184 184 173 178 175 168 172 178 152 157 156 159 151 149 144 162 159 160 163 177 134 156 134 118 125 130 132 125 125 126 116 112 105
199 199 191 186 185 183 169 176 185 185 183 187 177 184 172 177 172 174 171 171 169 174 158 164 170 172 165 165 169 148 165 145 138 123 128 122 136 135 132 127 125 120 121
204 198 191 188 189 187 183 178 178 184 187 178 172 187 169 183 179 177 173 173 180 179 171 170 173 169 169 166 164 163 162 146 141 132 136 127 140 139 140 133 125 125 121
208 199 197 195 191 193 188 188 186 181 179 174 174 184 182 187 179 176 177 177 187 185 177 175 170 172 172 167 164 162 161 152 153 142 136 140 149 149 135 138 135 134 127
219 208 194 200 197 195 199 194 191 188 181 180 177 187 186 188 185 180 179 181 185 189 177 176 170 173 171 170 167 163 160 159 150 149 149 147 141 122 131 143 144 141 131
223 217 199 199 201 202 200 197 198 188 192 180 181 187 188 190 182 183 185 180 182 184 182 177 176 172 171 173 165 165 167 166 160 159 157 157 158 148 119 130 142 142 141
225 222 214 200 204 203 204 201 203 196 184 191 181 185 186 188 184 188 191 185 175 184 186 176 180 176 172 174 170 168 166 168 167 169 158 164 165 163 146 143 138 143 143
230 222 223 208 207 205 202 204 197 197 188 184 189 188 183 185 187 190 189 184 180 183 186 183 179 181 175 172 165 164 170 170 177 175 171 174 167 170 155 160 154 150 155
237 229 218 218 205 202 198 192 193 194 188 188 192 189 185 185 184 185 182 175 185 188 188 182 179 177 176 167 157 115 55 181 187 185 183 182 174 179 169 167 178 160 165
232 229 227 217 211 204 196 196 200 200 199 200 191 192 190 187 186 185 179 178 187 186 185 183 181 174 181 174 161 145 153 356 268 210 194 195 183 182 177 181 182 174 168
240 232 226 220 215 206 200 197 197 196 202 196 195 190 192 189 185 188 186 183 185 189 184 183 183 181 173 176 174 161 161 190 147 242 211 196 184 191 191 185 183 189 186
176 237 250 224 220 208 194 196 193 193 190 198 197 196 195 193 188 189 188 185 184 185 187 187 183 182 174 187 190 217 201 139 188 162 216 203 187 202 196 187 189 188 193
109 106 232 244 221 213 193 196 199 202 203 195 201 198 195 196 194 194 192 190 186 190 191 188 186 193 191 191 196 198 194 174 192 160 169 181 194 204 192 198 188 193 188
93 84 118 184 230 220 202 200 200 208 207 204 196 197 195 193 196 196 194 193 194 191 191 195 194 195 195 197 201 198 193 191 188 182 175 176 180 190 189 195 195 193 193